STARLINK-5203, 54104

Orbit data source: Space-Track

STARLINK-5203, 54104 is a payload satellite owned by SpaceX/Seattle (US) in LEO that was launched on Thu, 20 Oct 2022 UTC via an FALCON 9 launch vehicle from the Air Force Eastern Test Range (AFETR). Payload-class satellites include a variety of spacecraft equipped with specific instruments for various scientific and technological missions. These include communications satellites like Starlink; space stations such as the ISS; scientific satellites like the Hubble; Earth observation satellites from companies like Planet Labs, Umbra, and HawkEye 360; GPS; miniature CubeSats for education and research; and military/defense satellites.

Loading next visibility...
Identifier
54104, 2022-136BF
Orbit
LEO
Country
Flag of USUS
Related business
Manufacturer
SpaceX/Seattle
Mission
Operational Commercial Communications
Bus & Motor
STARLINK, Unknown motor
Mass
305 kg wet, ~290 kg dry
Launch date (UTC)
2022-10-20 (3 years ago)
Launch vehicle
FALCON 9
Launch site
Air Force Eastern Test Range (AFETR)
Object type
Payload
Rocket body
Debris
Shape & HBR
Box + 1 Pan, 10.1 m
Radar Cross Section
13.562 m², Large (>1 m²)

Expand to show TLE details & history
Last TLE update: 16 hours ago

TLE from 16 hours ago
0 STARLINK-5203
1 54104U 22136BF  25303.87487282  .00003103  00000-0  21290-3 0  9991
2 54104  53.2155 161.4436 0001301  94.2007 265.9134 15.08854727167886
Epoch: 2025-10-30T20:59Z
TLE epoch observation values (Epoch: 2025-10-30T20:59:49.011Z)
Latitude
-0.00002°
Longitude
167.06198°
Altitude
540.66 km
Speed
7.593 km/s
True Right ascension
10h 45m 46s
True Declination
0° 00' 00"
Sunlit
Object was in daylight at epoch
Visualization orbit readout
Latitude
Unknown
Longitude
Unknown
Altitude
Unknown
Speed
Unknown
Apparent Right ascension
Unknown
Apparent Declination
Unknown
Sunlit
N/A
Visualization observer readout
Local Sidereal Time
08:46:53
Azimuth
Unknown
Elevation
Unknown
Doppler factor
Unknown
Orbital elements
Apogee altitude
540.844 km
Perigee altitude
539.044 km
Semi-major axis
6,918.081 km
Eccentricity
0.00013
Inclination
53.2155°
RAAN
161.4436°
Arg. of periapsis
94.2007°
True anomaly
265.89853°
Mean anomaly
265.9134°
Eccentric anomaly
265.90596°
Mean motion
3.77194 °/min
Orbital period
95.44 mins
BSTAR
0.0002129
Loading maneuver chart data...
Computing Atmospheric mass density...
Loading historical data...
Loading historical data...
Loading historical data...
Loading historical data...
Loading historical data...
Loading historical data...
Loading historical data...

Documentation

Showing up to 5 results
|